Location: Unspecified
(38.7223°N, 0.0000°E)
Time: 06:05:27
(UTC+00:00)

NOAA 16 DEB - Visible Passes

Search period start: 04 April 2026 00:00
Search period end: 14 April 2026 00:00
Orbit: 824 x 900 km, 98.8° (Epoch: 24 March)

Date Brightness Start Highest point End Pass type
(mag) Time Alt. Az. Time Alt. Az. Time Alt. Az.
4 Apr ? 04:44:12 10° NE 04:47:40 17° E 04:51:04 10° SE visible
5 Apr ? 04:36:20 10° ENE 04:39:01 14° E 04:41:41 10° ESE visible
6 Apr ? 04:28:56 10° ENE 04:30:22 11° E 04:31:47 10° ESE visible
9 Apr ? 18:52:58 10° WSW 18:54:18 11° W 18:55:38 10° WNW visible
